User: anonymous
Location: Unspecified
(0.0000°N, 0.0000°E)
Time: 18:23:58
(UTC+00:00)
Language:

OPTUS 1C - Orbit

View from above orbital plane
View from above orbital plane
View from above satellite
View from above satellite

Ground track
Ground track

The orbit data is extracted from the following two-line orbital elements,

1 27831U 03028B   14293.55279883 -.00000154  00000-0  00000+0 0  2555
2 27831 000.0340 140.0075 0004718 062.5623 181.3944 01.00272183 41639
Epoch (UTC): 20 October 2014 13:16:01
Eccentricity: 0.0004718
inclination: 0.0340°
perigee height: 35766 km
apogee height: 35806 km
right ascension of ascending node: 140.0075°
argument of perigee: 62.5623°
revolutions per day: 1.00272183
mean anomaly at epoch: 181.3944°
orbit number at epoch: 4163

The dashed part of the orbit path shows where the satellite is in the earth's shadow,  

DLR